Terug naar catalogus

FLOCK 4BE 19

ActiefWetenschapSSO
NORAD 60563·PAYLOAD·🇺🇸 United States

Gelanceerd Aug 16, 2024 vanaf Vandenberg Space Force Base

Loading…

Volgende Passages (komende 24 uur)

TLE

VersSource: CelesTrak SupGP

Epoch: Sep 14, 2026, 10:45 UTC

1 60563C 24149AQ  26257.44800926  .00051816  00000+0  97619-3 0  2577
2 60563  97.3699 344.4231 0003725 332.0966 132.9542 15.48489134    16

Volg FLOCK 4BE 19 in realtime met AllMySat

Download on the App Store